Satellite-Ground Cal/Val Site Overpasses Predictions

Prediction of Satellite NPP Overpassing Cal/Val Site: Antarctic Dome C

Ground Cal/Val Site Location: Latitude: -75.10, Longitude: 123.35; Satellite-Ground Site NADIR distance within 100 km.

Table of predicted overpasses for the next 14.0 days since TLE Epoch: 4/16/2022
Interval Starting Time Ending Time Minimum Distance Time Minimum Distance (km)
1 04/17/2022 14:55:00 04/17/2022 14:55:29 04/17/2022 14:55:15 20.60
2 04/18/2022 14:36:19 04/18/2022 14:36:33 04/18/2022 14:36:26 86.41
3 04/19/2022 07:37:50 04/19/2022 07:38:17 04/19/2022 07:38:03 35.26
4 04/20/2022 07:19:04 04/20/2022 07:19:23 04/20/2022 07:19:14 74.96
5 04/22/2022 15:01:17 04/22/2022 15:01:41 04/22/2022 15:01:29 57.45
6 04/23/2022 14:42:26 04/23/2022 14:42:51 04/23/2022 14:42:39 51.72
7 04/24/2022 07:44:07 04/24/2022 07:44:28 04/24/2022 07:44:18 70.26
8 04/25/2022 07:25:14 04/25/2022 07:25:41 04/25/2022 07:25:27 37.80
9 04/27/2022 15:07:38 04/27/2022 15:07:47 04/27/2022 15:07:43 94.89
